Location: ??
(34.9170°N, 135.5016°E)
Time: 10:06:00
(UTC+00:00)

X-37B - Pass Details

Date: 29 January 2021
Orbit: 383 x 391 km, 45.0° (Epoch: 27 February)

Event Time Altitude Azimuth Distance (km) Brightness Sun altitude
Rises 09:08:17 0° 308° (NW) 2,272 5.0 -9.5°
Reaches altitude 10° 09:10:43 10° 326° (NNW) 1,418 3.7 -10.0°
Maximum altitude 09:13:10 20° 16° (NNE) 974 2.3 -10.5°
Enters shadow 09:14:38 15° 52° (NE) 1,156 2.4 -10.8°
